CP7 (DAVE) (43615 NORAD) Tracking and Keplerian Element Data

This shows tracking and keplerian element data for the satellite.

Feedback or suggestion? Click here.




ElementValue
Catalog43615
NameCP7 (DAVE)
Epoch Orbit23544
Epoch Day325.04770793
Epoch Year2022
RAAN165.3359
Inclination93.0026
Eccentricity0.0009796
Argument of Perigee103.2025
Mean Anonmoly257.0339
Mean Motion15.69706639
Decay Rate0.00077015
L11 43615U 18070C 22325.04770793 .00077015 00000+0 64422-3 0 9996
L22 43615 93.0026 165.3359 0009796 103.2025 257.0339 15.69706639235446



Live tracking and technical data element details for CP7 (DAVE) (NORAD 43615). CP7 (DAVE) can be tracked NOW for your location showing map with azimuth and elevation plus other details from your city location.







IsCatalogInMostPopularTable: catalog: 43615, numindb: 557
Update: records affected: 1



GetName: 43615 CP7 (DAVE)

Hit Count: updated at: Mon, 28 Nov 2022 05:57:27 GMT